Regional Weather Roundup
Issued by NWS Charleston, SC

Current Version | Previous Version | Graphics & Text | Print | Product List | Glossary On
Versions: 1 2 3 4 5 6 7 8 9 10 11 12 13 14 15 16 17 18 19 20 21 22 23 24 25 26 27 28 29 30 31 32 33 34 35 36 37 38 39 40 41 42 43 44 45 46 47 48 49 50
000 ASUS42 KCHS 180025 RWRCHS REGIONAL WEATHER ROUNDUP NATIONAL WEATHER SERVICE CHARLESTON SC 800 PM EDT WED SEP 17 2014 NOTE: "FAIR" INDICATES FEW OR NO CLOUDS BELOW 12,000 FEET WITH NO SIGNIFICANT WEATHER AND/OR OBSTRUCTIONS TO VISIBILITY. NOT ALL STATIONS ARE QUALITY CONTROLLED BY THE NATIONAL WEATHER SERVICE. USE DATA WITH CAUTION...ESPECIALLY DEWPOINT OBSERVATIONS. SCZ027-030-031-034>040-042>050-180100- ...SOUTH CAROLINA... CITY SKY/WX TMP DP RH WIND PRES REMARKS N CHARLESTON CLOUDY 73 69 87 N8 29.90R 6HR MIN TEMP: 73; 6HR MAX TEMP: 86; 6HR PCP: TRACE; WATERFRONT PRK N/A 79 N/A N/A CALM N/A FORT JOHNSON NOT AVBL MOUNT PLEASANT FAIR 73 73 100 CALM 29.90R JOHNS ISLAND CLEAR 75 75 100 CALM 29.90R PINOPOLIS N/A 73 72 94 MISG 29.83R MONCKS CORNER N/A 70 70 100 CALM 29.90R SUMMERVILLE FAIR 68 68 100 CALM 29.92R BEAUFORT MCAS TSTM 78 74 87 CALM 29.90R 6HR MIN TEMP: 73; 6HR MAX TEMP: 86; BEAUFORT ARPT LGT RAIN 77 77 100 CALM 29.89S HILTON HEAD IS PTCLDY 81 73 78 CALM 29.86 GEORGETOWN NOT AVBL WALTERBORO MOCLDY 70 N/A N/A CALM 29.90F ORANGEBURG PTCLDY 70 66 87 E3 29.91R 6HR MIN TEMP: 69; 6HR MAX TEMP: 85; 6HR PCP: 0.40; BARNWELL MOCLDY 72 68 88 E3 29.92R AIKEN FAIR 72 72 100 NE5 29.94S MANNING FAIR 73 73 100 CALM 29.91R KINGSTREE NOT AVBL COLUMBIA PTCLDY 75 67 76 N5 29.89F 6HR MIN TEMP: 75; 6HR MAX TEMP: 81; SUMTER MOCLDY 74 67 78 SW2 29.90R 6HR MIN TEMP: 73; 6HR MAX TEMP: 79; FLORENCE MOCLDY 74 68 81 CALM 29.90R 6HR MIN TEMP: 74; 6HR MAX TEMP: 81; MYRTLE BEACH PTCLDY 77 70 78 NW7 29.88S N MYRTLE BEACH MOCLDY 75 71 87 CALM 29.88R 6HR MIN TEMP: 74; 6HR MAX TEMP: 84; $$ GAZ063-065-086>088-099>101-113>116-118-119-134-136>141-150-180100- ...GEORGIA... CITY SKY/WX TMP DP RH WIND PRES REMARKS SAVANNAH ARPT TSTM 75 71 87 NE12 29.89R 6HR MIN TEMP: 75; 6HR MAX TEMP: 90; 6HR PCP: 0.14; HUNTER AAF MOCLDY 79 73 83 E6 29.87R 6HR PCP: TRACE; FORT STEWART CLOUDY 75 72 88 N5 29.87R THUNDER 6HR MIN TEMP: 75; 6HR MAX TEMP: 89; 6HR PCP: TRACE; STATESBORO NOT AVBL SYLVANIA MOCLDY 74 73 94 E8 29.90R CLAXTON FAIR 79 72 78 E6 29.88R THOMSON PTCLDY 75 75 98 CALM 29.94S AUGUSTA-BUSH LGT RAIN 73 70 90 CALM 29.89R 6HR MIN TEMP: 73; 6HR MAX TEMP: 87; 6HR PCP: 0.04; AUGUSTA-DANIEL PTCLDY 74 70 87 NE7 29.90S SWAINSBORO FAIR 81 73 78 NE8 29.89R VIDALIA CLEAR 81 72 74 CALM 29.88R ALMA MOCLDY 78 73 84 CALM 29.86R 6HR MIN TEMP: 78; 6HR MAX TEMP: 91; WAYCROSS PTCLDY 82 77 83 E3 29.86R HX 90 JESUP FAIR 77 72 83 CALM 29.88R BRUNSWICK CLEAR 77 73 88 CALM 29.89R SAINT SIMONS CLEAR 79 72 79 CALM 29.87R 6HR MIN TEMP: 78; 6HR MAX TEMP: 86; 6HR PCP: 0.01; $$ SCZ027-028-034-036>038-045-046-048>050-GAZ119-141-180100- ...LAKE AND SUPPLEMENTAL COASTAL OBSERVATIONS... STATION/POSITION TIME TEMP WIND PRES WAVE SWELL AIR SEA DIR/SP/G HT/PER HT/PER/DIR (UTC) (F) (DEG/KT/KT) (MB) (FT/S) (FT/S/D) UPR LAKE MARION NOT AVBL WINYAH BAY 0000 76 340/ 2 1011.0S LAKE MURRAY 2300 74 60/ 1/ 6 1012.5R ACE BASIN NERRS 0000 78 CALM 1013.0R FORT PULASKI 0000 80 90/ 2/ 3 1012.2F SAPELO ISLAND 0000 79 110/ 3 1012.0R $$ ANZ835-935-AMZ111-154-330-350-352-354-374-450-454-472-180100- ...C-MAN AND BUOY OBSERVATIONS... STATION/POSITION TIME TEMP WIND PRES WAVE SWELL AIR SEA DIR/SP/G HT/PER HT/PER/DIR (UTC) (F) (DEG/KT/KT) (MB) (FT/S) (FT/S/D) FOLLY BEACH CMAN 0000 79 210/ 2/ 3 1012.7R BUOY 41004 0000 80 83 30/ 8/ 8 1011.2R 4/14 3/14 BUOY 41008 0000 81 85 100/ 6/ 8 1011.7R 3/15 2/ 90/15 5E ST. MARYS GA 0000 84 N/A 3/14 3/100/14 FRYING PAN BUOY NOT AVBL BUOY 41025 0000 74 10/ 17/ 23 1011.9R 6/ 7 3/100/12 CAPE LOOKOUT NC 0000 75 40/ 17/ 19 1012.3R BUOY 41002 NOT AVBL BUOY 41010 0000 81 85 300/ 8/ 12 1011.3R 5/13 5/ 80/13 BUOY 41012 NOT AVBL ST AUGUSTINE FL 0000 80 CALM / 2 1012.2R CAPERS NEARSHORE 2300 80 90/ 2/ 4 N/A FRIPP NEARSHORE NOT AVBL $$

USA.gov is the U.S. government's official web portal to all federal, state and local government web resources and services.